Skip Page Navigation
NASA JPL Caltech
NASA Logo - Jet Propulsion Laboratory + View the NASA Portal
+ Center for Near-Earth Object Studies
JPL Home Earth Solar System Stars & Galaxies Technology
JPL Solar System Dynamics
BODIES ORBITS EPHEMERIDES TOOLS PHYSICAL DATA DISCOVERY FAQ SITE MAP
IMPORTANT: The SSD Announcement email list is now available. Major changes are coming in the near future, including possible hostname and/or URL changes. To be notified of such changes, subscribe to this email list.

Please visit this page for more details.


JPL Small-Body Database Browser
Search: [ help ]  
300180 (2006 WX42)
Classification: Main-belt Asteroid          SPK-ID: 2300180
Ephemeris | Orbit Diagram | Orbital Elements | Mission Design | Physical Parameters | Discovery Circumstances | Close-Approach Data ]

[ show orbit diagram ]
Orbital Elements at Epoch 2458600.5 (2019-Apr-27.0) TDB
Reference: JPL 11 (heliocentric ecliptic J2000)
 Element Value Uncertainty (1-sigma)   Units 
e .1179062741540521 4.7945e-08  
a 3.175530532063553 3.2971e-08 au
q 2.801115558565505 1.5419e-07 au
i 10.73576809909817 6.4871e-06 deg
node 211.5392447571147 3.1607e-05 deg
peri 237.3221408818067 4.6473e-05 deg
M 53.54063406296029 3.1428e-05 deg
tp 2458293.099991409560
(2018-Jun-23.59999141)
0.00018022 TDB
period 2066.916184862975
5.66
3.219e-05
8.813e-08
d
yr
n .1741725197356593 2.7126e-09 deg/d
Q 3.549945505561602 3.6858e-08 au
  Orbit Determination Parameters
   # obs. used (total)      190  
   data-arc span      6777 days (18.55 yr)  
   first obs. used      2000-10-01  
   last obs. used      2019-04-22  
   planetary ephem.      DE431  
   SB-pert. ephem.      SB431-N16  
   condition code      0  
   norm. resid. RMS      .58229  
   source      ORB  
   producer      Otto Matic  
   solution date      2019-Jul-14 11:01:39  

Additional Information
 Earth MOID = 1.8347 au 
 Jupiter MOID = 1.8267 au 
 T_jup = 3.163 
[ hide covariance matrix ]
Orbital Elements at Epoch 2457330.5 (2015-Nov-04.0) TDB
Reference: JPL 11 (heliocentric ecliptic J2000)
 Element Value Uncertainty (1-sigma)   Units 
e .1188116809727174 4.7954e-08  
q 2.798380801436272 1.5425e-07 au
tp 2458293.864190035982
(2018-Jun-24.36419004)
0.00017869 TDB
node 211.5597205947469 3.1612e-05 deg
peri 237.5735537674443 4.6275e-05 deg
i 10.7352540702772 6.487e-06 deg
  Orbit Determination Parameters
   # obs. used (total)      190  
   data-arc span      6777 days (18.55 yr)  
   first obs. used      2000-10-01  
   last obs. used      2019-04-22  
   planetary ephem.      DE431  
   SB-pert. ephem.      SB431-N16  
   condition code      0  
   norm. resid. RMS      .58229  
   source      ORB  
   producer      Otto Matic  
   solution date      2019-Jul-14 11:01:39  

Additional Information
 Jupiter MOID = 1.8267 au 
 T_jup = 3.163 
Orbit Covariance (6×6)
  e q tp node peri i
e 2.29953973970689E-15 -7.265308932625548E-15 5.30832607357152E-13 -8.06322143720761E-17 1.312500189153812E-13 -3.376516408279851E-15
q -7.265308932625548E-15 2.379214999182565E-14 -1.493250009461046E-12 -4.576762009723718E-15 -4.618261918342777E-13 1.150262049176616E-14
tp 5.30832607357152E-13 -1.493250009461046E-12 3.193166478150946E-8 2.570415006956517E-11 6.060383019380777E-9 -8.464621923406838E-12
node -8.06322143720761E-17 -4.576762009723718E-15 2.570415006956517E-11 9.993124720740923E-10 -9.7600879474545E-10 -4.127293812949441E-11
peri 1.312500189153812E-13 -4.618261918342777E-13 6.060383019380777E-9 -9.7600879474545E-10 2.141329839417344E-9 3.878421232887039E-11
i -3.376516408279851E-15 1.150262049176616E-14 -8.464621923406838E-12 -4.127293812949441E-11 3.878421232887039E-11 4.208167312603137E-11

Ephemeris | Orbit Diagram | Orbital Elements | Mission Design | Physical Parameters | Discovery Circumstances | Close-Approach Data ]

Physical Parameter Table
Parameter Symbol Value Units Sigma Reference Notes
absolute magnitude H 15.9   n/a MPO437337  

300180 (2006 WX42)          Discovered 2006-Nov-16 by Spacewatch at Kitt Peak
Reference: 20111012/Numbers.arcLast Updated: 2011-10-13

[ show close-approach data ]
Alternate Designations
 2006 WX42 = 2005 RT35 
Ephemeris | Orbit Diagram | Orbital Elements | Mission Design | Physical Parameters | Discovery Circumstances | Close-Approach Data ]
ABOUT SSD CREDITS/AWARDS PRIVACY/COPYRIGHT GLOSSARY LINKS
FirstGov 2019-Dec-05 22:55 UT
(server date/time)  
NASA Home Page
Site Manager:   Ryan S. Park
Webmaster  Alan B. Chamberlin